Weather Roundup
Issued by NWS Chicago, IL

Home | Current Version | Previous Version | Text Only | Print | Product List | Glossary Off
Versions: 1 2 3 4 5 6 7 8 9 10 11 12 13 14 15 16 17 18 19 20 21 22 23 24 25 26 27 28 29 30 31 32 33 34 35 36 37 38 39 40 41 42 43 44 45 46 47 48 49 50

000
NZUS59 KLOT 172106
HRRLOT

CHICAGO AREA WEATHER ROUNDUP
NATIONAL WEATHER SERVICE CHICAGO/ROMEOVILLE IL
400 PM CDT WED SEP 17 2014

NOTE: "FAIR" INDICATES FEW OR NO CLOUDS BELOW 12,000 FEET WITH NO
SIGNIFICANT WEATHER AND/OR OBSTRUCTIONS TO VISIBILITY.

* THESE STATIONS ARE NOT UNDER NWS QUALITY CONTROL. THEY ALSO MAY NOT
  REPORT WEATHER SUCH AS PRECIPITATION OR FOG.

ILZ005-006-012>014-019>023-172200-
NORTHEAST ILLINOIS

CITY           SKY/WX    TMP DP  RH WIND       PRES   REMARKS
OHARE          MOSUNNY   69  45  41 CALM      29.98F
MIDWAY         MOSUNNY   71  45  39 VRB7      29.98F
AURORA         SUNNY     71  46  40 W5        29.97F
LANSING*       SUNNY     69  46  44 CALM      29.98F
JOLIET*        SUNNY     70  44  39 W5        29.98F
WAUKEGAN       SUNNY     64  48  56 SE10      29.98F
DUPAGE AIRPORT SUNNY     71  47  42 S7        29.98F
WHEELING       SUNNY     70  45  40 MISG      30.00F
KANKAKEE*      SUNNY     70  49  46 CALM      29.99S
MORRIS*        SUNNY     71  49  45 CALM      29.97F
LEWIS AIRPORT* SUNNY     69  45  41 CALM      29.98F
NORTHERLY IS     N/A     65  49  56 NE9         N/A
$$

WIZ051-052-058>065-066-070>072-172200-
SOUTHEAST WISCONSIN

CITY           SKY/WX    TMP DP  RH WIND       PRES   REMARKS
MILWAUKEE      PTSUNNY   65  47  52 SE16      29.98S
KENOSHA*       MOSUNNY   68  47  46 S3        29.99S
RACINE*        SUNNY     65  48  54 SE10      30.00S
BURLINGTON     MOSUNNY   68  46  44 S6        29.98S
WAUKESHA       MOSUNNY   66  45  45 W6        29.99S
WEST BEND      MOSUNNY   68  45  42 NW5       29.98S
$$

INZ001>003-010>013-019-020-172200-
NORTHWEST INDIANA

CITY           SKY/WX    TMP DP  RH WIND       PRES   REMARKS
GARY*          MOSUNNY   70  48  46 NE8       29.98F
MICHIGAN CITY* NOT AVBL
RENSSELAER*    NOT AVBL
VALPARAISO     SUNNY     68  46  45 SW6       29.99F
$$

LMZ740>746-172200-
SOUTHERN LAKE MICHIGAN

STATION/POSITION TIME  SKY/WX   TEMP WIND        PRES    VSBY
                                AIR  DIR/SP/G
                 (UTC)          (F)  (DEG/KT/KT) (MB)    (MI)
HARRISON CRIB    2100            62   80/  9/ 10   N/A
BURNHAM HARBOR   2100            64   60/  7/  8   N/A
CALUMET HARBOR   2100            63   40/  7/ 10 1014.2S
BURNS HARBOR     NOT AVBL
MICHIGAN CITY    2100            62   20/  7/  8   N/A
$$

ABBREVIATIONS USED IN REMARKS
   TC - TEMPERATURE IN CELSIUS
  WCI - WIND CHILL INDEX
   HX - HEAT INDEX
  VSB - VISIBILITY
$$



USA.gov is the U.S. government's official web portal to all federal, state and local government web resources and services.